Selawik, AK

7:28 AM AKDT on July 26, 2017 (GMT -0800)
Selawik

Weather History for PASK - November, 2012

Change the Weather History Date:

Sunday, November 4, 2012

  Actual Average Record
Temperature  
Mean Temperature 4 °F -  
Max Temperature 8 °F 14 °F 35 °F (2003)
Min Temperature 0 °F 6 °F -11 °F (2001)
Degree Days  
Heating Degree Days 61    
Moisture  
Dew Point -1 °F    
Average Humidity 82    
Maximum Humidity 92    
Minimum Humidity 72    
Precipitation  
Precipitation 0.00 in - - ()
Sea Level Pressure  
Sea Level Pressure 30.07 in    
Wind  
Wind Speed 1 mph (West)    
Max Wind Speed 8 mph    
Max Gust Speed -    
Visibility 10 miles    
Events      
Averages and records for this station are not official NWS values.
T = Trace of Precipitation, MM = Missing Value Source: NWS Daily Summary

Daily Weather History Graph

Daily Weather History Graph

Search for Another Location

Airport or City:

Trip Planner

Search our weather history database for the weather conditions in past years. The results will help you decide how hot, cold, wet, or windy it might be!

Date:

Astronomy

Nov. 04, 2012 Rise Set
Actual Time 9:53 AM AKST 4:52 PM AKST
Civil Twilight 8:51 AM AKST 5:54 PM AKST
Nautical Twilight 7:47 AM AKST 6:58 PM AKST
Astronomical Twilight 6:46 AM AKST 7:59 PM AKST
Moon 9:17 PM AKST (11/4) 3:14 PM AKST (11/4)
Length of Visible Light 9h 03m
Length of Day
6h 58m
Waning Gibbous, 70% of the Moon is Illuminated
Nov 4
Waning Gibbous
Nov 6
Last Quarter
Nov 13
New
Nov 20
First Quarter
Nov 28
Full

Hourly Weather History & Observations

Time (AKST) Temp. Windchill Dew Point Humidity Pressure Visibility Wind Dir Wind Speed Gust Speed Precip Events Conditions
12:16 AM 1.4 °F - -0.4 °F 92% 30.11 in 10.0 mi Calm Calm - N/A   Clear
12:36 AM 1.4 °F - -2.2 °F 85% 30.11 in 10.0 mi Calm Calm - N/A   Clear
12:56 AM 3.2 °F -4.2 °F -2.2 °F 78% 30.11 in 10.0 mi WSW 3.5 mph - N/A   Clear
1:16 AM 3.2 °F - -2.2 °F 78% 30.11 in 10.0 mi Calm Calm - N/A   Clear
1:36 AM 1.4 °F - -2.2 °F 85% 30.11 in 8.0 mi Calm Calm - N/A   Clear
1:56 AM 1.4 °F - -2.2 °F 85% 30.10 in 9.0 mi Calm Calm - N/A   Clear
1:16 AM 1.4 °F - -2.2 °F 85% 30.11 in 10.0 mi Calm Calm - N/A   Clear
1:36 AM 1.4 °F - -4.0 °F 78% 30.11 in 10.0 mi Calm Calm - N/A   Clear
1:56 AM 1.4 °F - -4.0 °F 78% 30.11 in 10.0 mi Calm Calm - N/A   Clear
2:16 AM 1.4 °F - -2.2 °F 85% 30.11 in 10.0 mi Calm Calm - N/A   Clear
3:36 AM 5.0 °F - -2.2 °F 72% 30.10 in 10.0 mi Calm Calm - N/A   Clear
3:56 AM 1.4 °F - -5.8 °F 72% 30.09 in 10.0 mi Calm Calm - N/A   Clear
4:16 AM 1.4 °F -6.2 °F -0.4 °F 92% 30.10 in 10.0 mi NW 3.5 mph - N/A   Clear
4:36 AM 1.4 °F - -4.0 °F 78% 30.10 in 10.0 mi Calm Calm - N/A   Clear
4:56 AM 1.4 °F - -2.2 °F 85% 30.10 in 10.0 mi Calm Calm - N/A   Clear
5:16 AM 1.4 °F - -2.2 °F 85% 30.10 in 10.0 mi Calm Calm - N/A   Clear
5:36 AM 1.4 °F - -4.0 °F 78% 30.09 in 10.0 mi Calm Calm - N/A   Clear
5:56 AM 1.4 °F - -4.0 °F 78% 30.09 in 10.0 mi Calm Calm - N/A   Clear
6:16 AM 1.4 °F - -2.2 °F 85% 30.10 in 10.0 mi Calm Calm - N/A   Clear
6:36 AM 1.4 °F - -2.2 °F 85% 30.10 in 10.0 mi Calm Calm - N/A   Clear
6:56 AM -0.4 °F -8.3 °F -5.8 °F 78% 30.10 in 10.0 mi West 3.5 mph - N/A   Clear
7:16 AM -0.4 °F - -4.0 °F 85% 30.10 in 10.0 mi Calm Calm - N/A   Clear
7:36 AM -0.4 °F - -4.0 °F 85% 30.09 in 10.0 mi Calm Calm - N/A   Clear
7:56 AM -0.4 °F - -4.0 °F 85% 30.08 in 10.0 mi Calm Calm - N/A   Clear
8:16 AM -0.4 °F - -2.2 °F 92% 30.08 in 10.0 mi Calm Calm - N/A   Clear
8:36 AM 1.4 °F - -2.2 °F 85% 30.08 in 10.0 mi Calm Calm - N/A   Clear
8:56 AM 1.4 °F - -4.0 °F 78% 30.08 in 9.0 mi Calm Calm - N/A   Clear
9:16 AM -0.4 °F - -5.8 °F 78% 30.08 in 10.0 mi Calm Calm - N/A   Clear
9:36 AM -0.4 °F - -2.2 °F 92% 30.08 in 10.0 mi Calm Calm - N/A   Clear
9:56 AM -0.4 °F -8.3 °F -5.8 °F 78% 30.08 in 10.0 mi WSW 3.5 mph - N/A   Clear
10:16 AM -0.4 °F -10.4 °F -2.2 °F 92% 30.07 in 10.0 mi West 4.6 mph - N/A   Clear
10:36 AM -0.4 °F -12.0 °F -4.0 °F 85% 30.06 in 10.0 mi WSW 5.8 mph - N/A   Clear
10:56 AM 1.4 °F -8.3 °F -2.2 °F 85% 30.06 in 10.0 mi West 4.6 mph - N/A   Clear
11:16 AM 1.4 °F -8.3 °F -2.2 °F 85% 30.06 in 9.0 mi WSW 4.6 mph - N/A   Clear
11:36 AM 3.2 °F -7.8 °F -0.4 °F 85% 30.07 in 10.0 mi WSW 5.8 mph - N/A   Partly Cloudy
11:56 AM 3.2 °F -6.2 °F 1.4 °F 92% 30.06 in 10.0 mi WSW 4.6 mph - N/A   Partly Cloudy
12:16 PM 5.0 °F -5.6 °F 1.4 °F 85% 30.06 in 10.0 mi WSW 5.8 mph - N/A   Clear
12:36 PM 6.8 °F -4.8 °F 1.4 °F 79% 30.06 in 10.0 mi WSW 6.9 mph - N/A   Clear
12:56 PM 6.8 °F -3.5 °F 1.4 °F 79% 30.05 in 10.0 mi WSW 5.8 mph - N/A   Clear
1:16 PM 6.8 °F -3.5 °F 1.4 °F 79% 30.05 in 10.0 mi West 5.8 mph - N/A   Clear
1:36 PM 6.8 °F -3.5 °F 1.4 °F 79% 30.05 in 10.0 mi WSW 5.8 mph - N/A   Clear
1:56 PM 6.8 °F -5.9 °F 1.4 °F 79% 30.05 in 10.0 mi West 8.1 mph - N/A   Clear
2:16 PM 6.8 °F -4.8 °F 1.4 °F 79% 30.04 in 10.0 mi WSW 6.9 mph - N/A   Mostly Cloudy
2:36 PM 6.8 °F -4.8 °F 1.4 °F 79% 30.04 in 10.0 mi WSW 6.9 mph - N/A   Mostly Cloudy
2:56 PM 6.8 °F -3.5 °F 1.4 °F 79% 30.04 in 10.0 mi West 5.8 mph - N/A   Scattered Clouds
3:16 PM 6.8 °F -0.1 °F 1.4 °F 79% 30.04 in 10.0 mi West 3.5 mph - N/A   Scattered Clouds
3:36 PM 8.6 °F - 3.2 °F 79% 30.03 in 10.0 mi Calm Calm - N/A   Clear
3:56 PM 8.6 °F - 1.4 °F 73% 30.04 in 10.0 mi Calm Calm - N/A   Clear
4:16 PM 6.8 °F - 1.4 °F 79% 30.04 in 10.0 mi Calm Calm - N/A   Clear
4:36 PM 6.8 °F - 1.4 °F 79% 30.04 in 10.0 mi Calm Calm - N/A   Partly Cloudy
4:56 PM 6.8 °F - 1.4 °F 79% 30.03 in 10.0 mi Calm Calm - N/A   Clear
5:16 PM 6.8 °F - 1.4 °F 79% 30.04 in 9.0 mi Calm Calm - N/A   Clear
5:36 PM 5.0 °F - 1.4 °F 85% 30.04 in 10.0 mi Calm Calm - N/A   Clear
5:56 PM 5.0 °F - 1.4 °F 85% 30.05 in 10.0 mi Calm Calm - N/A   Clear
6:16 PM 3.2 °F -4.2 °F -0.4 °F 85% 30.05 in 10.0 mi NNE 3.5 mph - N/A   Clear
6:36 PM 3.2 °F -6.2 °F -0.4 °F 85% 30.05 in 10.0 mi NNE 4.6 mph - N/A   Clear
6:56 PM 3.2 °F - -2.2 °F 78% 30.05 in 10.0 mi Calm Calm - N/A   Clear
7:16 PM 3.2 °F - -0.4 °F 85% 30.05 in 10.0 mi Calm Calm - N/A   Partly Cloudy
7:36 PM 3.2 °F -4.2 °F -2.2 °F 78% 30.06 in 10.0 mi North 3.5 mph - N/A   Mostly Cloudy
7:56 PM 3.2 °F - -0.4 °F 85% 30.06 in 10.0 mi Calm Calm - N/A   Overcast
8:16 PM 3.2 °F - -0.4 °F 85% 30.06 in 10.0 mi Calm Calm - N/A   Overcast
8:36 PM 3.2 °F - -0.4 °F 85% 30.06 in 10.0 mi Calm Calm - N/A   Scattered Clouds
8:56 PM 3.2 °F - -2.2 °F 78% 30.07 in 10.0 mi Calm Calm - N/A   Clear
9:16 PM 1.4 °F -6.2 °F -2.2 °F 85% 30.07 in 10.0 mi WNW 3.5 mph - N/A   Clear
9:36 PM 1.4 °F -8.3 °F -2.2 °F 85% 30.08 in 10.0 mi WNW 4.6 mph - N/A   Clear
9:56 PM 3.2 °F -6.2 °F -2.2 °F 78% 30.08 in 10.0 mi West 4.6 mph - N/A   Clear
10:16 PM 3.2 °F -7.8 °F -2.2 °F 78% 30.08 in 10.0 mi WNW 5.8 mph - N/A   Clear
10:36 PM 3.2 °F -7.8 °F -0.4 °F 85% 30.08 in 10.0 mi West 5.8 mph - N/A   Clear
10:56 PM 3.2 °F -6.2 °F -2.2 °F 78% 30.09 in 10.0 mi WNW 4.6 mph - N/A   Clear